When you browse on this site, cookies collect data to enhance your experience and personalize the content and advertising you see.
Visit our Privacy Policy to learn more. By continuing to use the site, you agree to this use of cookies and data.
  • In Switzerland
  • List of Countries
  • For 7 days
  • Water Temperature
  • Weather Map
  • Weather Widgets
  • user-avatar
    Login

    Hourly Weather Heinsberg

    Today, 3 June, Wednesday

    Time Temperature Precipitation Wind Pressure Humidity
    00:00 +16°C° 0.1 mm 2 mps 754 mmHg 75%
    01:00 +15°C° 0 mm 2 mps 754 mmHg 77%
    02:00 +14°C° 0 mm 2 mps 753 mmHg 78%
    03:00 +14°C° 0 mm 2 mps 752 mmHg 80%
    04:00 +14°C° 0 mm 2 mps 752 mmHg 79%
    05:00 +15°C° 0 mm 2 mps 752 mmHg 78%
    06:00 +16°C° 0 mm 2 mps 752 mmHg 76%
    07:00 +18°C° 0 mm 2 mps 751 mmHg 70%
    08:00 +19°C° 0 mm 2 mps 751 mmHg 65%
    09:00 +21°C° 0 mm 2 mps 751 mmHg 59%
    10:00 +23°C° 0 mm 2 mps 750 mmHg 56%
    11:00 +24°C° 0 mm 2 mps 750 mmHg 54%
    12:00 +25°C° 0 mm 2 mps 749 mmHg 52%
    13:00 +25°C° 0.3 mm 2 mps 749 mmHg 50%
    14:00 +25°C° 0.3 mm 2 mps 748 mmHg 49%
    15:00 +25°C° 0.3 mm 2 mps 748 mmHg 48%
    16:00 +24°C° 0.2 mm 2 mps 747 mmHg 53%
    17:00 +23°C° 0.2 mm 2 mps 747 mmHg 58%
    18:00 +20°C° 0.2 mm 2 mps 747 mmHg 64%
    19:00 +19°C° 0 mm 2 mps 747 mmHg 68%
    20:00 +17°C° 0 mm 2 mps 747 mmHg 71%
    21:00 +16°C° 0 mm 3 mps 747 mmHg 75%
    22:00 +16°C° 0.1 mm 2 mps 747 mmHg 80%
    23:00 +15°C° 0.1 mm 2 mps 746 mmHg 84%

    Tomorrow, 4 June, Thursday

    Time Temperature Precipitation Wind Pressure Humidity
    00:00 +15°C° 0.1 mm 2 mps 746 mmHg 89%
    01:00 +14°C° 0 mm 2 mps 746 mmHg 90%
    02:00 +14°C° 0 mm 2 mps 745 mmHg 92%
    03:00 +13°C° 0 mm 3 mps 745 mmHg 94%
    04:00 +13°C° 0 mm 3 mps 745 mmHg 91%
    05:00 +13°C° 0 mm 3 mps 745 mmHg 88%
    06:00 +14°C° 0 mm 3 mps 745 mmHg 84%
    07:00 +14°C° 0.1 mm 3 mps 744 mmHg 83%
    08:00 +14°C° 0.1 mm 4 mps 744 mmHg 81%
    09:00 +14°C° 0.1 mm 4 mps 744 mmHg 80%
    10:00 +14°C° 0.2 mm 4 mps 744 mmHg 79%
    11:00 +15°C° 0.2 mm 5 mps 744 mmHg 78%
    12:00 +15°C° 0.2 mm 6 mps 744 mmHg 77%
    13:00 +15°C° 0.1 mm 5 mps 744 mmHg 75%
    14:00 +15°C° 0.1 mm 5 mps 744 mmHg 72%
    15:00 +15°C° 0.1 mm 5 mps 744 mmHg 70%
    16:00 +15°C° 0 mm 5 mps 744 mmHg 67%
    17:00 +14°C° 0 mm 5 mps 744 mmHg 65%
    18:00 +14°C° 0 mm 5 mps 745 mmHg 62%
    19:00 +13°C° 0 mm 4 mps 745 mmHg 66%
    20:00 +11°C° 0 mm 4 mps 745 mmHg 69%
    21:00 +9°C° 0 mm 3 mps 746 mmHg 72%
    22:00 +8°C° 0 mm 3 mps 746 mmHg 75%
    23:00 +8°C° 0 mm 3 mps 746 mmHg 78%

    Day after tomorrow, 5 June, Friday

    Time Temperature Precipitation Wind Pressure Humidity
    00:00 +7°C° 0 mm 3 mps 746 mmHg 81%
    01:00 +7°C° 0 mm 3 mps 745 mmHg 82%
    02:00 +7°C° 0 mm 3 mps 745 mmHg 83%
    03:00 +7°C° 0 mm 3 mps 745 mmHg 84%
    04:00 +8°C° 0.2 mm 3 mps 745 mmHg 83%
    05:00 +9°C° 0.2 mm 3 mps 745 mmHg 82%
    06:00 +10°C° 0.2 mm 4 mps 745 mmHg 81%
    07:00 +11°C° 0.4 mm 4 mps 744 mmHg 78%
    08:00 +12°C° 0.4 mm 5 mps 744 mmHg 76%
    09:00 +13°C° 0.4 mm 6 mps 743 mmHg 73%
    10:00 +13°C° 1.1 mm 6 mps 743 mmHg 76%
    11:00 +13°C° 1.1 mm 6 mps 743 mmHg 78%
    12:00 +12°C° 1.1 mm 7 mps 743 mmHg 80%
    13:00 +12°C° 0.8 mm 7 mps 743 mmHg 76%
    14:00 +14°C° 0.8 mm 6 mps 743 mmHg 71%
    15:00 +14°C° 0.8 mm 6 mps 743 mmHg 66%
    16:00 +14°C° 0.4 mm 6 mps 743 mmHg 69%
    17:00 +13°C° 0.4 mm 5 mps 744 mmHg 72%
    18:00 +12°C° 0.4 mm 5 mps 744 mmHg 75%
    19:00 +11°C° 0.1 mm 4 mps 744 mmHg 79%
    20:00 +10°C° 0.1 mm 4 mps 745 mmHg 82%
    21:00 +8°C° 0.1 mm 4 mps 745 mmHg 86%
    22:00 +8°C° 0 mm 4 mps 745 mmHg 85%
    23:00 +8°C° 0 mm 5 mps 745 mmHg 85%

    6 June, Saturday

    Time Temperature Precipitation Wind Pressure Humidity
    00:00 +8°C° 0 mm 5 mps 745 mmHg 84%
    01:00 +8°C° 0.1 mm 5 mps 745 mmHg 87%
    02:00 +7°C° 0.1 mm 5 mps 746 mmHg 90%
    03:00 +7°C° 0.1 mm 5 mps 746 mmHg 93%
    04:00 +8°C° 0 mm 5 mps 746 mmHg 90%
    05:00 +8°C° 0 mm 5 mps 746 mmHg 87%
    06:00 +9°C° 0 mm 6 mps 746 mmHg 83%
    07:00 +10°C° 0.2 mm 6 mps 746 mmHg 76%
    08:00 +12°C° 0.2 mm 7 mps 747 mmHg 69%
    09:00 +14°C° 0.2 mm 7 mps 747 mmHg 62%
    10:00 +14°C° 0.2 mm 7 mps 747 mmHg 59%
    11:00 +15°C° 0.2 mm 7 mps 747 mmHg 55%
    12:00 +16°C° 0.2 mm 7 mps 747 mmHg 52%
    13:00 +16°C° 0.1 mm 7 mps 747 mmHg 52%
    14:00 +16°C° 0.1 mm 7 mps 747 mmHg 52%
    15:00 +16°C° 0.1 mm 7 mps 747 mmHg 52%
    16:00 +16°C° 0 mm 6 mps 747 mmHg 52%
    17:00 +15°C° 0 mm 5 mps 747 mmHg 52%
    18:00 +15°C° 0 mm 4 mps 747 mmHg 53%
    19:00 +13°C° 0 mm 4 mps 748 mmHg 56%
    20:00 +11°C° 0 mm 4 mps 748 mmHg 58%
    21:00 +8°C° 0 mm 4 mps 749 mmHg 61%
    22:00 +8°C° 0 mm 4 mps 749 mmHg 65%
    23:00 +7°C° 0 mm 4 mps 749 mmHg 70%

    7 June, Sunday

    Time Temperature Precipitation Wind Pressure Humidity
    00:00 +6°C° 0 mm 4 mps 749 mmHg 74%
    01:00 +6°C° 0 mm 4 mps 750 mmHg 75%
    02:00 +6°C° 0 mm 4 mps 750 mmHg 75%
    03:00 +5°C° 0 mm 3 mps 750 mmHg 76%
    04:00 +7°C° 0 mm 4 mps 750 mmHg 73%
    05:00 +8°C° 0 mm 4 mps 750 mmHg 70%
    06:00 +9°C° 0 mm 5 mps 750 mmHg 67%
    07:00 +10°C° 0 mm 5 mps 751 mmHg 64%
    08:00 +12°C° 0 mm 5 mps 751 mmHg 61%
    09:00 +13°C° 0 mm 5 mps 751 mmHg 58%
    10:00 +13°C° 0.1 mm 5 mps 751 mmHg 57%
    11:00 +14°C° 0.1 mm 5 mps 752 mmHg 56%
    12:00 +14°C° 0.1 mm 5 mps 752 mmHg 55%
    13:00 +15°C° 0 mm 5 mps 752 mmHg 53%
    14:00 +16°C° 0 mm 5 mps 751 mmHg 52%
    15:00 +17°C° 0 mm 5 mps 751 mmHg 51%
    16:00 +17°C° 0.3 mm 4 mps 751 mmHg 58%
    17:00 +17°C° 0.3 mm 4 mps 751 mmHg 66%
    18:00 +15°C° 0.3 mm 4 mps 751 mmHg 73%
    19:00 +14°C° 0.1 mm 4 mps 752 mmHg 77%
    20:00 +13°C° 0.1 mm 4 mps 752 mmHg 80%
    21:00 +12°C° 0.1 mm 4 mps 753 mmHg 83%
    22:00 +11°C° 0 mm 3 mps 753 mmHg 84%
    23:00 +11°C° 0 mm 3 mps 753 mmHg 85%

    8 June, Monday

    Time Temperature Precipitation Wind Pressure Humidity
    00:00 +10°C° 0 mm 3 mps 752 mmHg 86%
    01:00 +10°C° 0 mm 3 mps 752 mmHg 85%
    02:00 +10°C° 0 mm 3 mps 752 mmHg 84%
    03:00 +11°C° 0 mm 3 mps 752 mmHg 83%
    04:00 +11°C° 0 mm 4 mps 752 mmHg 82%
    05:00 +11°C° 0 mm 4 mps 752 mmHg 81%
    06:00 +12°C° 0 mm 5 mps 752 mmHg 80%
    07:00 +13°C° 0.1 mm 6 mps 752 mmHg 77%
    08:00 +13°C° 0.1 mm 6 mps 752 mmHg 75%
    09:00 +14°C° 0.1 mm 6 mps 752 mmHg 73%
    10:00 +14°C° 0.2 mm 7 mps 752 mmHg 71%
    11:00 +15°C° 0.2 mm 7 mps 753 mmHg 69%
    12:00 +15°C° 0.2 mm 7 mps 753 mmHg 66%
    13:00 +16°C° 0.1 mm 7 mps 753 mmHg 65%
    14:00 +16°C° 0.1 mm 6 mps 752 mmHg 63%
    15:00 +17°C° 0.1 mm 6 mps 752 mmHg 62%
    16:00 +16°C° 0.2 mm 5 mps 753 mmHg 67%
    17:00 +15°C° 0.2 mm 5 mps 753 mmHg 72%
    18:00 +15°C° 0.2 mm 4 mps 753 mmHg 77%
    19:00 +13°C° 0.1 mm 4 mps 753 mmHg 81%
    20:00 +12°C° 0.1 mm 3 mps 754 mmHg 85%
    21:00 +11°C° 0.1 mm 3 mps 754 mmHg 89%
    22:00 +11°C° 0 mm 3 mps 754 mmHg 90%
    23:00 +10°C° 0 mm 3 mps 754 mmHg 91%
    Show more